Location: Gensac
(43.2177°N, 1.1313°E)
Time: 02:19:46
(UTC+00:00)

Cosmos 2098 Rocket - Pass Details

Date: 08 December 2025
Orbit: 349 x 865 km, 82.9° (Epoch: 17 January)

Event Time Altitude Azimuth Distance (km) Brightness Sun altitude
Exits shadow 04:16:10 64° 99° (E) 964 4.1 -31.7°
Drops below altitude 10° 04:21:35 10° 162° (SSE) 2,495 6.3 -30.7°
Sets 04:24:00 0° 165° (SSE) 3,399 7.1 -30.2°
